Location: Edoum�
(0.9447°N, 10.6482°E)
Time: 23:16:24
(UTC+00:00)

SL-4 R/B - Pass Details

Date: 07 June 2020
Orbit: 428 x 666 km, 51.6° (Epoch: 10 July)

Event Time Altitude Azimuth Distance (km) Brightness Sun altitude
Rises 04:37:19 0° 319° (NW) 2,814 5.4 -8.6°
Reaches altitude 10° 04:39:42 10° 315° (NW) 1,875 4.5 -8.1°
Maximum altitude 04:43:54 60° 236° (SW) 625 2.0 -7.1°
Drops below altitude 10° 04:47:47 10° 155° (SSE) 1,733 4.6 -6.2°
Sets 04:49:55 0° 151° (SSE) 2,579 5.5 -5.7°
